Home   Weather   Thiès   Past weeks

Flag for Senegal Past Weather in Thiès, Senegal — Yesterday and Last 2 Weeks

81 °F


Feels Like: 86 °F
Forecast: N/A
Wind: 5 mph from Northwest

Location: Dakar / Yoff

Current Time: Oct 20, 2016 at 9:32:37 PM

Latest Report: Oct 20, 2016 at 9:00 PM

Visibility: 10 mi

Pressure: 29.86 "Hg

Humidity: 84%

Dew Point: 75 °F

Location of ThièsLocation

Past Weather in Thiès — Graph


Thiès Temperature Yesterday

Maximum temperature yesterday: 91 °F (at 2:00 PM)
Minimum temperature yesterday: 77 °F (at 5:00 AM)
Average temperature yesterday: 84 °F

High & Low Weather Summary for the Past Weeks

High97 °F (Oct 9, 11:30 AM)100% (Oct 10, 1:00 AM)30.04 "Hg (Oct 10, 1:00 AM)
Low75 °F (Oct 15, 4:00 AM)41% (Oct 16, 2:30 PM)29.53 "Hg (Oct 6, 4:00 PM)
Average83 °F79%29.87 "Hg
* Reported Oct 5 8:00 PM — Oct 20 8:30 PM, Thiès, Weather by CustomWeather, © 2016

Note: Actual official high and low records may vary slightly from our data, if they occured in-between our weather recording intervals... More about our weather records


Thiès Weather History for the Previous 24 Hours

Scroll right to see more
Time TempWeatherWind HumidityBarometerVisibility
8:30 PM
Thu, Oct 20
81 °FClear.6 mph89%29.86 "Hg10 mi
8:00 PM81 °FPassing clouds.2 mph89%29.86 "HgN/A
7:30 PM81 °FClear.5 mph89%29.83 "Hg10 mi
7:00 PM82 °FClear.6 mph84%29.83 "Hg10 mi
6:30 PM82 °FSunny.7 mph79%29.83 "Hg10 mi
6:01 PM84 °FSunny.9 mph70%29.83 "Hg10 mi
5:30 PM86 °FSunny.9 mph75%29.80 "Hg10 mi
5:10 PM86 °FSunny.10 mph70%29.83 "Hg10 mi
5:00 PM86 °FSunny.10 mph70%29.83 "Hg10 mi
4:30 PM86 °FClear.8 mph75%29.83 "Hg6 mi
4:00 PM86 °FClear.9 mph75%29.83 "Hg5 mi
3:30 PM86 °FClear.9 mph79%29.83 "Hg5 mi
3:00 PM86 °FClear.9 mph75%29.83 "Hg5 mi
2:30 PM88 °FClear.9 mph70%29.86 "Hg5 mi
2:00 PM88 °FClear.9 mph70%29.86 "Hg5 mi
1:30 PM88 °FClear.8 mph70%29.86 "Hg5 mi
1:00 PM88 °FClear.9 mph62%29.89 "Hg5 mi
12:00 PM88 °FClear.8 mph62%29.89 "Hg5 mi
11:30 AM88 °FClear.10 mph52%29.92 "Hg5 mi
11:00 AM88 °FClear.3 mph55%29.92 "Hg4 mi
10:30 AM86 °FClear.3 mph75%29.92 "Hg4 mi
10:00 AM84 °FClear.5 mph79%29.92 "Hg4 mi
9:30 AM84 °FClear.5 mph84%29.92 "Hg4 mi
9:00 AM82 °FClear.5 mph89%29.92 "Hg4 mi
8:30 AM82 °FPassing clouds.7 mph89%29.89 "Hg4 mi
8:00 AM82 °FPassing clouds.7 mph89%29.89 "Hg4 mi
7:30 AM81 °FPassing clouds.5 mph94%29.89 "Hg4 mi
7:00 AM81 °FPassing clouds.6 mph94%29.89 "Hg4 mi
6:30 AM82 °FPassing clouds.6 mph89%29.89 "Hg4 mi
6:00 AM82 °FPassing clouds.6 mph89%29.89 "Hg4 mi
5:30 AM82 °FPassing clouds.6 mph89%29.89 "Hg4 mi
5:00 AM82 °FPassing clouds.6 mph89%29.89 "Hg4 mi
4:30 AM82 °FPassing clouds.7 mph89%29.89 "Hg4 mi
4:00 AM82 °FPassing clouds.7 mph89%29.86 "Hg4 mi
3:30 AM82 °FPassing clouds.7 mph89%29.89 "Hg4 mi
3:00 AM82 °FPassing clouds.7 mph89%29.89 "Hg4 mi
2:30 AM82 °FPassing clouds.8 mph89%29.89 "Hg5 mi
2:00 AM82 °FPassing clouds.7 mph89%29.89 "Hg4 mi
1:30 AM82 °FClear.7 mph89%29.89 "Hg4 mi
1:00 AM82 °FClear.7 mph89%29.89 "Hg4 mi
12:30 AM82 °FClear.6 mph89%29.89 "Hg4 mi
12:00 AM82 °FClear.5 mph89%29.89 "Hg4 mi
11:30 PM
Wed, Oct 19
82 °FClear.6 mph89%29.89 "Hg4 mi
11:00 PM82 °FClear.6 mph89%29.89 "Hg4 mi
10:30 PM82 °FClear.8 mph89%29.89 "Hg4 mi
10:00 PM82 °FClear.9 mph89%29.89 "Hg4 mi
9:30 PM82 °FClear.8 mph89%29.89 "Hg4 mi
9:00 PM82 °FClear.7 mph89%29.86 "Hg4 mi
Weather by CustomWeather, © 2016

See weather overviewHow to use our weather pages